STARLINK-35367, 65883

Orbit data source: Space-Track

STARLINK-35367, 65883 is a payload satellite owned by SpaceX/Seattle (US) in LEO that was launched on Tue, 07 Oct 2025 UTC via an FALCON 9 launch vehicle from the Air Force Eastern Test Range (AFETR). Payload-class satellites include a variety of spacecraft equipped with specific instruments for various scientific and technological missions. These include communications satellites like Starlink; space stations such as the ISS; scientific satellites like the Hubble; Earth observation satellites from companies like Planet Labs, Umbra, and HawkEye 360; GPS; miniature CubeSats for education and research; and military/defense satellites.

Loading next visibility...
Identifier
65883, 2025-224B
Orbit
LEO
Country
Flag of USUS
Related business
Manufacturer
SpaceX/Seattle
Mission
Operational spacecraft
Bus & Motor
STARLINK V2MO, Unknown motor
Mass
575 kg wet, ~530 kg dry
Launch date (UTC)
2025-10-07 (2 weeks ago)
Launch vehicle
FALCON 9
Launch site
Air Force Eastern Test Range (AFETR)
Object type
Payload
Rocket body
Debris
Shape & HBR
Unknown
Radar Cross Section
RCS unknown

Expand to show TLE details & history
Last TLE update: 8 hours ago

TLE from 8 hours ago
0 STARLINK-35367
1 65883U 25224B   25292.91670139 -.01412558  00000-0 -83330-2 0  9998
2 65883  53.1517 310.1907 0001061  94.6665 206.1439 15.80124951  3205
Epoch: 2025-10-19T22:00Z
TLE epoch observation values (Epoch: 2025-10-19T22:00:03.000Z)
Latitude
-43.61849°
Longitude
-93.69147°
Altitude
345.372 km
Speed
7.701 km/s
True Right ascension
17h 39m 47s
True Declination
-43° 26' 10"
Sunlit
Object was in daylight at epoch
Visualization orbit readout
Latitude
Unknown
Longitude
Unknown
Altitude
Unknown
Speed
Unknown
Apparent Right ascension
Unknown
Apparent Declination
Unknown
Sunlit
N/A
Visualization observer readout
Local Sidereal Time
00:37:46
Azimuth
Unknown
Elevation
Unknown
Doppler factor
Unknown
Orbital elements
Apogee altitude
331.062 km
Perigee altitude
329.638 km
Semi-major axis
6,708.487 km
Eccentricity
0.00011
Inclination
53.1517°
RAAN
310.1907°
Arg. of periapsis
94.6665°
True anomaly
206.13854°
Mean anomaly
206.1439°
Eccentric anomaly
206.14122°
Mean motion
3.95008 °/min
Orbital period
91.14 mins
BSTAR
-0.008333
Loading maneuver chart data...
Computing Atmospheric mass density...
Loading historical data...
Loading historical data...
Loading historical data...
Loading historical data...
Loading historical data...
Loading historical data...
Loading historical data...

Documentation

Showing up to 5 results
|